Theta_e
339 348 351 356 355 354 353 351 351 353 352 351 350 350 350 349 349 349 349 349 346 344 343 343 341 341 343 343 343 344 344 344 346 347 348 348 348 349 348 346 348 348 350
341 347 350 354 355 353 353 352 352 353 352 351 350 350 351 350 350 350 348 346 345 343 343 342 340 338 338 339 340 339 341 342 343 344 346 347 346 346 345 345 346 345 346
339 346 351 352 354 354 353 353 352 352 350 350 349 348 348 346 349 349 347 346 345 342 341 340 337 336 334 333 335 336 339 341 342 343 344 344 344 345 344 343 343 343 343
339 346 350 349 352 353 352 352 352 351 349 348 347 346 346 347 349 349 346 344 344 344 342 339 335 333 330 330 332 333 339 341 339 340 342 343 343 343 342 342 342 341 341
340 346 349 348 352 352 352 351 351 350 349 347 346 346 345 347 349 348 345 343 341 341 340 338 334 331 328 327 328 332 337 337 335 340 341 343 342 342 342 342 340 340 340
340 344 346 348 352 352 351 351 349 349 349 348 347 347 346 345 348 347 345 341 339 336 334 335 333 329 325 324 325 329 333 333 334 338 339 339 340 340 340 340 341 341 341
339 344 348 346 350 351 351 351 350 349 348 348 347 347 347 345 347 345 343 340 337 334 333 332 330 327 322 322 324 326 329 327 331 334 335 337 336 335 336 337 338 339 338
339 343 344 340 344 348 349 349 349 350 349 349 349 348 346 345 345 343 340 338 336 335 334 332 329 325 321 320 322 323 323 321 323 325 328 329 330 330 331 331 334 335 336
334 340 344 345 344 336 342 343 346 347 347 347 347 346 346 345 344 341 340 338 335 335 333 331 327 324 320 317 318 320 318 317 319 321 320 324 327 327 326 327 329 330 331
313 317 322 337 340 345 348 335 337 342 343 344 343 341 339 339 340 335 333 336 335 334 333 330 327 323 319 315 315 312 311 313 315 317 319 320 323 324 323 324 324 325 326
310 311 312 316 324 337 341 341 334 335 338 338 338 335 335 344 343 337 331 334 336 335 333 330 326 322 315 307 307 307 308 310 310 311 312 315 320 322 321 322 322 322 324
307 308 310 311 314 320 337 341 342 344 346 345 344 342 341 342 341 335 328 329 331 332 332 330 326 319 319 317 309 307 307 307 307 308 308 311 316 320 323 322 321 322 324
305 308 309 310 311 315 334 340 342 342 345 344 343 341 340 338 336 335 333 331 332 326 329 329 324 325 322 319 312 307 306 306 307 307 307 308 313 318 321 324 322 323 323
305 307 310 312 314 314 326 337 339 339 341 343 336 339 340 339 337 334 334 330 330 330 329 325 323 322 323 317 313 310 307 307 306 306 307 304 309 315 319 323 325 324 323
304 307 309 314 318 318 319 336 336 336 335 333 332 331 334 334 336 338 336 331 331 331 331 329 322 317 320 320 316 311 308 306 305 305 306 305 305 310 315 320 324 327 324
304 306 311 311 319 322 329 331 329 328 327 326 326 327 327 328 328 328 327 327 328 326 326 321 318 316 313 311 316 311 309 308 306 305 305 306 303 307 310 315 322 326 328
304 307 303 308 314 317 316 314 314 314 315 316 317 318 320 324 325 324 321 320 319 318 317 317 312 312 312 310 308 306 305 309 308 306 305 305 305 307 306 311 315 319 322
303 304 304 306 307 306 306 306 305 305 308 309 310 312 313 315 317 316 314 314 315 315 314 313 312 311 309 306 308 309 306 306 308 307 306 305 305 304 307 306 309 313 316
301 303 302 303 303 302 302 301 300 300 301 304 304 305 304 310 311 311 312 312 313 311 310 310 309 309 309 308 308 310 307 302 305 307 307 306 304 303 304 305 303 305 308
300 303 303 302 303 302 301 300 299 298 298 298 300 301 303 303 307 309 309 310 311 310 308 310 309 309 307 305 303 302 304 304 302 303 306 304 303 302 302 302 304 304 303
298 300 301 303 304 307 306 304 301 298 297 295 296 297 298 299 301 302 302 302 304 303 304 305 308 307 306 305 307 309 309 306 303 302 305 304 303 301 302 302 303 303 303
295 297 298 298 300 301 301 300 297 294 293 293 293 292 293 293 294 294 296 296 298 298 298 300 301 303 303 303 300 304 303 306 304 306 306 303 302 303 303 301 301 301 302
292 293 294 295 296 297 296 295 293 293 293 291 290 290 290 291 291 292 292 292 292 292 291 292 295 297 298 300 301 299 297 297 297 304 303 302 303 302 303 304 303 303 302
290 291 291 293 293 294 295 294 294 292 288 288 289 289 289 289 289 290 290 290 290 290 289 290 290 290 291 289 296 295 298 296 293 293 299 299 300 298 300 301 301 302 302
289 289 290 290 290 290 291 291 290 289 288 289 288 288 288 288 288 288 288 288 288 288 288 288 288 288 289 288 288 289 290 291 295 288 287 290 292 293 296 297 297 299 300
288 288 289 288 287 289 289 290 289 288 288 287 287 287 287 287 287 287 287 287 287 287 286 287 287 287 287 287 287 287 286 285 285 285 284 285 287 289 291 293 295 296 300
Wind_Speed
6 10 6 11 13 13 11 11 11 10 11 11 11 11 11 10 9 9 12 12 13 13 13 13 12 12 12 12 11 14 14 13 13 13 15 15 14 15 15 14 12 13 14
7 11 8 10 10 12 12 10 10 9 10 11 10 10 9 8 8 10 13 12 13 12 13 13 12 12 12 11 10 10 10 10 10 10 8 11 11 11 12 13 13 12 13
8 12 12 9 11 12 12 10 9 9 10 10 10 9 9 7 6 11 12 11 11 12 12 13 12 12 12 11 10 9 9 9 8 7 4 6 9 9 11 11 11 12 12
7 12 12 9 10 12 12 10 9 9 9 9 9 9 8 7 9 12 12 11 12 13 13 12 12 12 12 11 10 9 9 9 7 5 3 5 8 10 10 10 10 10 10
8 10 9 8 9 10 11 10 8 8 9 9 8 8 8 7 10 10 10 10 13 13 12 11 12 12 12 11 10 8 8 8 5 2 5 6 6 9 9 9 6 8 10
6 8 8 6 6 9 10 11 9 9 8 8 7 7 8 8 8 7 9 10 11 10 8 9 10 12 12 12 10 8 8 7 6 5 5 5 7 9 8 8 9 9 9
4 6 8 7 6 8 9 11 11 9 9 9 8 7 7 7 7 6 8 10 9 8 7 8 9 10 11 11 11 9 9 7 5 4 4 5 7 8 7 7 7 8 8
4 2 3 5 4 6 8 9 12 10 8 9 10 8 7 7 8 7 8 8 8 8 8 8 9 10 11 11 10 9 9 8 2 4 5 4 8 7 7 7 6 7 7
9 5 2 3 5 5 6 6 9 11 9 6 4 5 7 6 6 7 7 8 7 7 8 8 9 10 11 11 11 10 8 7 5 4 4 4 10 7 7 7 6 6 6
9 7 6 4 3 6 8 4 5 6 6 5 5 5 7 6 6 8 7 7 7 8 9 8 8 8 8 9 10 9 7 2 5 4 3 6 10 7 6 6 6 6 5
7 7 6 5 4 4 5 5 5 6 6 7 8 8 7 6 8 9 6 7 6 7 9 9 8 7 5 5 6 7 7 4 5 3 3 9 9 8 7 6 6 6 6
10 9 8 7 5 4 3 5 5 5 7 8 7 5 1 2 3 4 5 7 6 6 6 8 9 9 2 3 3 1 3 5 4 4 3 10 11 9 8 7 6 5 4
9 7 9 8 7 6 5 3 2 2 4 3 1 2 3 3 3 2 3 2 2 4 2 4 4 1 3 2 2 2 3 4 3 3 4 9 11 11 10 9 6 4 4
8 9 10 9 7 5 5 4 3 2 1 3 4 5 1 3 4 4 3 4 3 3 2 1 1 1 1 3 1 2 2 3 2 3 3 6 10 11 11 11 10 5 5
8 10 10 10 7 3 5 4 4 4 4 6 6 7 4 4 4 1 1 2 2 1 2 3 1 1 4 3 2 3 4 4 5 3 3 2 6 8 10 11 11 11 7
8 10 10 10 8 5 6 7 6 7 8 8 8 8 7 4 4 3 3 2 2 3 3 4 3 3 3 4 4 5 5 4 4 5 5 5 4 8 8 9 10 12 12
8 9 9 9 10 12 12 11 9 8 8 8 7 11 11 8 7 7 5 5 4 3 3 2 2 1 1 2 3 2 4 5 4 5 4 4 6 4 8 11 10 9 10
9 10 10 10 12 14 13 10 9 9 9 10 10 10 13 11 10 9 6 5 5 5 4 4 3 2 2 1 2 2 3 4 5 5 4 3 3 4 4 8 12 13 13
7 8 10 11 13 13 12 11 12 12 10 10 9 9 13 12 12 10 8 7 8 6 6 5 4 3 3 3 4 4 4 3 5 4 6 5 4 4 4 5 6 10 10
7 8 10 9 11 12 9 9 9 10 10 9 10 10 12 11 11 9 8 9 8 7 7 6 6 5 5 5 5 5 4 3 2 4 4 4 4 5 4 6 6 5 7
8 9 9 10 8 7 7 8 8 10 9 11 11 14 14 13 13 12 9 10 9 9 10 10 6 6 6 9 4 4 3 1 0 0 3 3 4 4 5 5 4 4 6
9 10 10 10 10 8 6 7 7 8 9 9 10 13 14 15 14 13 12 11 12 9 12 12 12 6 6 9 6 5 4 2 4 5 4 3 5 6 7 7 6 5 5
8 8 9 10 11 12 13 10 10 10 9 9 9 9 12 14 14 14 14 12 12 11 10 12 12 14 8 8 11 6 5 5 11 3 7 6 9 8 8 10 11 10 9
8 7 9 9 10 9 9 9 13 9 9 8 8 9 10 12 13 13 13 12 12 9 11 10 10 10 10 9 5 8 6 5 5 7 4 9 7 12 12 9 11 11 11
6 8 9 11 11 10 11 11 10 13 10 8 7 10 11 11 12 12 11 11 11 9 10 11 10 10 8 7 6 6 6 6 3 7 11 10 8 8 9 10 12 10 11
6 7 8 10 10 10 10 11 13 13 11 8 8 7 6 6 7 10 10 9 9 9 9 8 8 9 8 6 6 5 5 5 7 7 11 13 14 8 9 8 8 10 8
Wind_Direction
179 160 193 153 148 139 129 124 121 113 113 112 108 105 106 105 102 95 86 77 72 66 62 60 58 58 59 58 54 45 42 42 42 46 54 56 51 54 53 41 32 53 51
150 166 166 155 155 137 134 129 123 121 120 115 111 106 102 107 96 97 85 79 73 62 56 54 53 49 49 52 51 49 49 43 45 45 38 91 66 63 60 52 40 47 38
164 167 172 171 153 144 135 135 132 129 126 122 117 111 105 97 98 107 91 74 67 62 52 51 48 47 42 36 36 40 49 53 48 40 349 63 78 68 64 59 53 49 43
172 169 173 169 165 150 140 139 141 136 132 128 125 119 113 106 107 107 93 77 60 60 55 46 43 41 39 35 32 32 40 49 46 334 50 52 65 69 61 63 62 57 51
152 174 169 172 172 152 142 142 148 143 139 135 130 125 121 110 117 117 107 96 72 57 52 37 34 34 32 33 35 36 45 45 32 321 51 35 101 59 52 40 69 86 74
149 180 143 179 184 160 157 154 161 157 152 148 144 138 131 125 133 131 122 93 82 71 45 42 33 32 32 30 30 40 41 35 307 52 44 60 40 37 36 32 40 51 69
120 164 175 188 203 193 192 166 165 172 169 163 160 160 149 149 145 129 92 94 85 86 62 52 38 33 33 35 39 40 37 25 4 36 39 26 42 17 23 20 24 31 52
79 105 187 195 232 221 212 185 172 174 184 186 184 175 172 157 139 118 99 93 86 93 68 64 46 34 30 33 42 46 40 7 21 28 23 14 12 21 22 19 15 15 24
42 44 38 238 223 265 268 245 187 183 186 213 198 173 179 162 144 110 91 91 83 80 77 78 57 43 33 27 33 40 40 21 18 30 18 24 2 15 18 19 9 8 8
47 35 17 1 308 246 235 226 268 186 183 201 212 197 184 173 151 130 128 103 97 104 95 91 71 64 49 38 27 22 13 316 29 20 26 24 350 354 9 7 8 354 351
36 25 9 356 342 317 262 254 230 251 206 202 216 211 193 218 186 165 106 114 108 125 127 126 110 89 67 65 38 19 326 12 2 12 5 3 351 348 348 350 349 344 339
8 0 357 341 319 277 252 224 229 246 241 218 217 198 225 213 110 105 115 126 129 135 134 143 137 131 153 22 25 318 10 359 352 353 9 355 350 344 341 334 340 332 345
346 351 353 340 325 287 218 209 186 217 242 245 248 146 148 123 122 153 139 166 159 170 155 147 150 227 100 52 36 13 360 340 346 345 20 355 348 343 337 331 324 325 322
350 351 348 346 328 301 250 185 164 186 216 46 49 24 310 188 176 170 185 170 159 192 177 185 261 322 70 108 48 342 338 328 335 330 359 8 347 343 340 336 325 310 308
360 354 356 349 345 308 218 137 111 85 73 70 57 38 29 30 346 51 216 164 219 217 247 207 145 6 316 341 347 337 339 334 328 320 312 20 336 342 342 341 335 314 302
359 6 10 3 2 80 120 82 74 75 65 56 51 43 48 55 64 56 35 35 20 8 358 22 13 12 28 6 342 351 341 326 323 320 322 320 320 328 330 334 342 341 330
9 17 18 21 44 57 56 55 55 52 54 57 57 48 46 36 51 65 62 57 35 39 82 87 96 96 34 3 356 328 317 307 299 299 302 313 325 302 327 327 330 329 331
15 30 36 44 52 65 67 61 57 50 57 58 50 42 47 42 55 59 54 37 32 35 41 41 16 34 24 352 306 270 262 279 274 272 274 279 297 306 317 345 335 330 324
43 54 59 60 67 67 72 81 74 66 64 59 56 49 43 44 56 58 52 45 50 47 43 33 42 17 2 343 308 289 269 254 273 291 293 292 299 301 310 315 321 314 320
61 72 87 89 100 105 98 88 81 74 61 56 49 47 48 50 49 60 57 54 50 47 40 36 39 51 23 341 306 296 288 273 285 282 303 299 310 314 308 313 311 307 309
59 61 50 62 57 85 87 88 72 69 63 56 51 46 45 43 44 45 49 43 47 49 37 26 15 20 22 357 305 311 281 315 20 120 14 10 6 19 342 323 311 320 312
83 84 83 79 73 71 79 88 88 90 75 73 65 55 51 51 45 49 48 45 40 45 41 31 26 14 26 19 348 298 333 263 43 313 330 2 358 345 342 340 332 319 304
77 78 93 99 104 105 109 107 103 101 90 76 63 62 53 53 54 52 52 52 50 44 43 37 28 25 21 29 38 3 335 343 333 32 333 359 344 346 336 326 319 316 309
76 82 81 84 88 89 100 100 107 103 97 81 82 80 71 60 59 57 57 56 54 48 44 38 34 35 28 29 20 14 9 332 332 317 328 325 347 329 322 321 319 317 311
106 98 97 97 93 95 103 108 107 107 109 110 97 88 78 66 57 55 55 55 55 48 44 37 35 31 33 28 25 359 355 339 341 311 307 323 316 319 312 326 316 313 313
111 108 109 104 99 104 102 100 106 116 121 119 114 102 89 78 68 55 57 57 51 50 40 38 31 33 24 25 10 5 354 341 331 317 308 310 311 313 324 295 309 314 318